User: anonymous   Login
Location: Unspecified
(0.0000°N, 0.0000°E)
Time: 20:43:28
(UTC+00:00)
Language:

GALILEO-FM3 - Orbit

View from above orbital plane
View from above orbital plane
View from above satellite
View from above satellite

Ground track
Ground track

The orbit is defined by the following mean orbital elements,

1 38857U          26109.23035716 +.00000000 +00000-0 +00000-0 0 00009
2 38857  55.7701 103.1616 0005947 294.3040  65.6305  1.70473325    00
Epoch (UTC): 19 April 2026 05:31:42
Eccentricity: 0.0005947
inclination: 55.7701°
perigee height: 23205 km
apogee height: 23240 km
right ascension of ascending node: 103.1616°
argument of perigee: 294.3040°
revolutions per day: 1.70473325
mean anomaly at epoch: 65.6305°

The dashed part of the orbit path shows where the satellite is in the earth's shadow,  

DLR